FW8733 Weather Reports


time (UTC)temp
C
wind
direction
speed
KPH
gust
KPH
rain 1hr
cm
rain 24hr
cm
rain mn
cm
humidity
%
barometer
mb
20260506212411 18 262 3.2 3.2 0.00 0.00 0.00 81 1015.5
20260506211906 18 190 1.6 1.6 0.00 0.00 0.00 81 1015.5
20260506211402 19 256 0.0 0.0 0.00 0.00 0.00 81 1015.6
20260506210859 19 260 3.2 3.2 0.00 0.00 0.00 80 1015.5
20260506210356 19 212 0.0 0.0 0.00 0.00 0.00 81 1015.6
20260506205854 19 210 0.0 0.0 0.00 0.00 0.00 81 1015.7
20260506205349 19 237 0.0 1.6 0.00 0.00 0.00 81 1015.6
20260506204846 20 253 4.8 4.8 0.00 0.00 0.00 79 1015.5
20260506204344 20 172 1.6 1.6 0.00 0.00 0.00 80 1015.8
20260506203841 19 263 1.6 1.6 0.00 0.00 0.00 81 1015.7
20260506203338 20 147 1.6 4.8 0.00 0.00 0.00 81 1015.7
20260506202835 19 198 1.6 1.6 0.00 0.00 0.00 83 1016.0
20260506202332 20 215 0.0 0.0 0.00 0.00 0.00 82 1016.1
20260506201828 20 264 3.2 4.8 0.00 0.00 0.00 81 1015.6
20260506201326 20 240 1.6 3.2 0.00 0.00 0.00 81 1015.6
20260506200822 21 190 0.0 1.6 0.00 0.00 0.00 81 1015.7
20260506200319 21 238 0.0 0.0 0.00 0.00 0.00 82 1015.5
20260506195815 21 236 0.0 0.0 0.00 0.00 0.00 82 1015.5
20260506195312 21 251 1.6 3.2 0.00 0.00 0.00 82 1015.3
20260506194809 20 250 0.0 0.0 0.00 0.00 0.00 83 1015.3
20260506194305 21 286 3.2 3.2 0.00 0.00 0.00 82 1015.4
20260506193803 21 234 0.0 1.6 0.00 0.00 0.00 83 1015.4
20260506193300 20 214 1.6 3.2 0.00 0.00 0.00 84 1015.1
20260506192756 20 206 1.6 1.6 0.00 0.00 0.00 85 1015.3
20260506192253 20 227 0.0 0.0 0.00 0.00 0.00 85 1015.4
20260506191750 20 243 1.6 3.2 0.00 0.00 0.00 85 1015.5
20260506191246 21 212 0.0 1.6 0.00 0.00 0.00 85 1015.1
20260506190743 21 217 0.0 1.6 0.00 0.00 0.00 85 1015.2
20260506190240 21 186 3.2 3.2 0.00 0.00 0.00 85 1015.3
20260506185737 22 59 0.0 0.0 0.00 0.00 0.00 84 1015.2
20260506185233 23 210 1.6 3.2 0.00 0.00 0.00 82 1015.2
20260506184731 25 187 3.2 3.2 0.00 0.00 0.00 78 1015.0
20260506184228 26 204 0.0 0.0 0.00 0.00 0.00 76 1015.0
20260506183725 26 224 1.6 3.2 0.00 0.00 0.00 75 1015.2
20260506183220 26 201 1.6 1.6 0.00 0.00 0.00 72 1014.9
20260506182718 26 201 0.0 0.0 0.00 0.00 0.00 73 1014.9
20260506182215 27 203 1.6 1.6 0.00 0.00 0.00 72 1014.9
20260506181713 26 173 0.0 0.0 0.00 0.00 0.00 75 1014.7
20260506181210 26 211 3.2 3.2 0.00 0.00 0.00 71 1014.9
20260506180707 26 211 0.0 0.0 0.00 0.00 0.00 71 1014.8
20260506180203 26 244 0.0 1.6 0.00 0.00 0.00 70 1014.9
20260506175659 25 181 0.0 1.6 0.00 0.00 0.00 73 1015.0
20260506175156 25 204 1.6 1.6 0.00 0.00 0.00 73 1014.9
20260506174654 25 171 1.6 3.2 0.00 0.00 0.00 73 1014.8
20260506174151 25 254 1.6 1.6 0.00 0.00 0.00 72 1014.6
20260506173649 25 217 0.0 1.6 0.00 0.00 0.00 76 1014.5
20260506173145 24 216 0.0 1.6 0.00 0.00 0.00 76 1014.4
20260506172642 23 189 1.6 3.2 0.00 0.00 0.00 78 1014.5
20260506172139 23 210 1.6 1.6 0.00 0.00 0.00 80 1014.8
20260506171636 23 222 0.0 0.0 0.00 0.00 0.00 79 1014.9
20260506171134 23 211 3.2 4.8 0.00 0.00 0.00 76 1015.0
20260506170626 22 208 1.6 3.2 0.00 0.00 0.00 81 1014.8
20260506170122 22 209 1.6 1.6 0.00 0.00 0.00 79 1014.9
20260506165621 21 259 0.0 1.6 0.00 0.00 0.00 82 1015.2
20260506165111 21 236 3.2 8.0 0.00 0.00 0.00 80 1015.2
20260506164609 21 215 3.2 4.8 0.00 0.00 0.00 79 1015.2
20260506164106 21 206 1.6 1.6 0.00 0.00 0.00 84 1015.0
20260506163601 20 197 8.0 9.7 0.00 0.00 0.00 85 1015.2
20260506163057 20 223 0.0 0.0 0.00 0.00 0.00 87 1015.4
20260506162554 18 215 0.0 0.0 0.00 0.00 0.00 89 1015.5
20260506162051 18 215 0.0 0.0 0.00 0.00 0.00 93 1015.8
20260506161549 17 215 0.0 0.0 0.00 0.00 0.00 92 1015.9
20260506161045 17 218 0.0 0.0 0.00 0.00 0.00 92 1016.8
20260506160543 17 254 0.0 1.6 0.00 0.00 0.00 91 1017.2
20260506160040 18 244 3.2 4.8 0.00 0.00 0.00 91 1017.2
20260506155539 18 235 0.0 1.6 0.00 0.00 0.00 91 1016.6
20260506153715 20 209 1.6 3.2 0.00 0.00 0.00 90 1015.2
20260506153213 20 222 3.2 3.2 0.00 0.00 0.00 91 1015.1
20260506152709 20 185 0.0 1.6 0.00 0.00 0.00 91 1015.2
20260506152207 21 212 1.6 3.2 0.00 0.00 0.00 90 1015.3
20260506151706 21 224 1.6 3.2 0.00 0.00 0.00 89 1014.6
20260506151202 22 292 6.4 11.3 0.00 0.00 0.00 87 1014.6
20260506150658 25 342 4.8 4.8 0.00 0.00 0.00 87 1014.9
20260506150155 25 215 0.0 0.0 0.00 0.00 0.00 89 1014.2
20260506145652 25 215 1.6 1.6 0.00 0.00 0.00 89 1014.2
20260506145149 25 215 0.0 0.0 0.00 0.00 0.00 90 1014.1
20260506144647 25 215 0.0 0.0 0.00 0.00 0.00 90 1013.7
20260506144143 25 214 0.0 0.0 0.00 0.00 0.00 91 1013.7
20260506143641 25 209 3.2 4.8 0.00 0.00 0.00 91 1013.3
20260506143139 25 207 4.8 4.8 0.00 0.00 0.00 91 1013.4
20260506142637 25 197 1.6 3.2 0.00 0.00 0.00 91 1013.2
20260506142135 25 225 1.6 3.2 0.00 0.00 0.00 90 1013.2
20260506141632 25 231 3.2 4.8 0.00 0.00 0.00 91 1012.8
20260506141130 25 218 4.8 8.0 0.00 0.00 0.00 90 1012.7
20260506140628 25 179 4.8 8.0 0.00 0.00 0.00 91 1013.0
20260506140125 25 181 4.8 4.8 0.00 0.00 0.00 93 1013.2
20260506135622 24 186 4.8 4.8 0.00 0.00 0.00 93 1013.0
20260506135118 24 217 3.2 4.8 0.00 0.00 0.00 93 1013.5
20260506134614 24 200 4.8 4.8 0.00 0.00 0.00 94 1013.2
20260506134110 24 199 1.6 1.6 0.00 0.00 0.00 94 1012.8
20260506133608 24 206 1.6 1.6 0.00 0.00 0.00 94 1012.9
20260506133104 24 206 3.2 3.2 0.00 0.00 0.00 94 1012.8
20260506132602 24 199 1.6 1.6 0.00 0.00 0.00 95 1012.7
20260506132059 24 199 1.6 3.2 0.00 0.00 0.00 94 1012.8
20260506131556 24 199 1.6 3.2 0.00 0.00 0.00 95 1012.9
20260506131052 24 184 4.8 4.8 0.00 0.00 0.00 95 1012.6
20260506130549 23 181 4.8 4.8 0.00 0.00 0.00 95 1012.3
20260506130047 23 183 3.2 3.2 0.00 0.00 0.00 95 1012.4
20260506125545 23 168 1.6 3.2 0.00 0.00 0.00 96 1012.8
20260506125042 23 169 3.2 4.8 0.00 0.00 0.00 96 1012.3
20260506124540 23 199 1.6 1.6 0.00 0.00 0.00 96 1012.1
20260506124038 23 201 1.6 1.6 0.00 0.00 0.00 96 1012.0
20260506123535 23 201 1.6 1.6 0.00 0.00 0.00 96 1012.3
20260506123033 23 194 4.8 4.8 0.00 0.00 0.00 97 1012.3
20260506122529 23 225 1.6 1.6 0.00 0.00 0.00 97 1012.1
20260506122028 23 227 0.0 1.6 0.00 0.00 0.00 97 1012.1
20260506121525 23 227 0.0 0.0 0.00 0.00 0.00 97 1012.3
20260506121021 23 228 0.0 0.0 0.00 0.00 0.00 97 1012.3
20260506120519 23 227 0.0 0.0 0.00 0.00 0.00 97 1012.3
20260506120017 23 227 0.0 0.0 0.00 0.00 0.00 96 1012.2
20260506115514 23 227 0.0 0.0 0.00 0.00 0.00 96 1012.2
20260506115013 23 227 0.0 0.0 0.00 0.00 0.00 96 1011.9
20260506114509 23 227 0.0 0.0 0.00 0.00 0.00 96 1011.7
20260506114008 23 227 0.0 1.6 0.00 0.00 0.00 96 1011.9
20260506113505 23 228 0.0 0.0 0.00 0.00 0.00 96 1011.8
20260506113002 23 228 0.0 0.0 0.00 0.00 0.00 96 1012.3
20260506112459 23 228 0.0 0.0 0.00 0.00 0.00 96 1012.4
20260506111956 23 228 0.0 0.0 0.00 0.00 0.00 95 1012.2
20260506111454 23 228 0.0 0.0 0.00 0.00 0.00 95 1012.3
20260506110951 23 228 0.0 0.0 0.00 0.00 0.00 95 1012.2
20260506110449 23 228 0.0 0.0 0.00 0.00 0.00 95 1011.9
20260506105945 23 228 0.0 0.0 0.00 0.00 0.00 95 1012.0
20260506105442 23 228 0.0 0.0 0.00 0.00 0.00 95 1012.0
20260506104939 23 228 0.0 0.0 0.00 0.00 0.00 95 1012.1
20260506104437 23 228 0.0 0.0 0.00 0.00 0.00 94 1012.2
20260506103935 23 228 0.0 0.0 0.00 0.00 0.00 94 1011.9
20260506103432 23 227 0.0 0.0 0.00 0.00 0.00 94 1011.8
20260506102929 23 227 0.0 0.0 0.00 0.00 0.00 94 1011.9
20260506102427 23 207 0.0 0.0 0.00 0.00 0.00 94 1011.6
20260506101924 23 207 0.0 0.0 0.00 0.00 0.00 94 1011.8
20260506101420 23 207 0.0 0.0 0.00 0.00 0.00 94 1011.9
20260506100918 24 220 0.0 0.0 0.00 0.00 0.00 93 1011.6
20260506100416 24 219 0.0 0.0 0.00 0.00 0.00 93 1011.8
20260506095914 24 242 0.0 0.0 0.00 0.00 0.00 93 1011.5
20260506095412 24 207 0.0 0.0 0.00 0.00 0.00 93 1011.5
20260506094908 24 207 4.8 4.8 0.00 0.00 0.00 93 1011.7
20260506094407 24 206 0.0 0.0 0.00 0.00 0.00 93 1011.5
20260506093904 24 205 1.6 1.6 0.00 0.00 0.00 93 1011.4
20260506093401 24 206 0.0 1.6 0.00 0.00 0.00 93 1011.2
20260506092859 24 228 0.0 1.6 0.00 0.00 0.00 93 1011.1
20260506092357 24 216 1.6 1.6 0.00 0.00 0.00 93 1011.1
20260506091853 24 217 0.0 0.0 0.00 0.00 0.00 94 1011.3
20260506091351 24 212 0.0 0.0 0.00 0.00 0.00 94 1011.1
20260506090848 24 210 1.6 1.6 0.00 0.00 0.00 94 1011.1
20260506090346 24 214 1.6 3.2 0.00 0.00 0.00 94 1011.0
20260506085842 24 185 1.6 3.2 0.00 0.00 0.00 93 1011.1
20260506085338 24 187 4.8 4.8 0.00 0.00 0.00 93 1010.7
20260506084835 24 204 1.6 1.6 0.00 0.00 0.00 93 1010.9
20260506084332 24 184 4.8 4.8 0.00 0.00 0.00 93 1011.0
20260506083828 24 187 0.0 0.0 0.00 0.00 0.00 93 1010.9
20260506083326 24 207 3.2 4.8 0.00 0.00 0.00 93 1011.0
20260506082823 24 198 3.2 4.8 0.00 0.00 0.00 93 1011.0
20260506082320 24 195 1.6 3.2 0.00 0.00 0.00 93 1011.0
20260506081816 24 220 1.6 1.6 0.00 0.00 0.00 93 1011.0
20260506081314 24 222 0.0 0.0 0.00 0.00 0.00 93 1011.0
20260506080812 24 187 1.6 3.2 0.00 0.00 0.00 92 1010.9
20260506080308 24 225 1.6 3.2 0.00 0.00 0.00 92 1011.0
20260506073252 24 170 6.4 8.0 0.00 0.00 0.00 91 1011.3
20260506072749 24 215 3.2 3.2 0.00 0.00 0.00 91 1011.1
20260506072246 24 139 9.7 14.5 0.00 0.00 0.00 91 1011.2
20260506071744 24 174 6.4 8.0 0.00 0.00 0.00 91 1011.3
20260506071242 24 143 1.6 3.2 0.00 0.00 0.00 91 1011.6
20260506070738 24 230 4.8 8.0 0.00 0.00 0.00 91 1011.4
20260506070235 24 230 4.8 8.0 0.00 0.00 0.00 91 1011.1
20260506062212 24 215 3.2 3.2 0.00 0.00 0.00 92 1011.4
20260506061708 24 187 4.8 4.8 0.00 0.00 0.00 92 1011.4
20260506061206 24 210 6.4 8.0 0.00 0.00 0.00 92 1011.4
20260506060704 24 203 3.2 4.8 0.00 0.00 0.00 92 1011.2
20260506060201 24 161 12.9 14.5 0.00 0.00 0.00 92 1011.3
20260506051133 24 190 4.8 9.7 0.00 0.00 0.00 92 1011.2
20260506050631 24 177 4.8 4.8 0.00 0.00 0.00 93 1011.4
20260506050128 24 187 3.2 4.8 0.00 0.00 0.00 92 1011.3
20260506045121 24 201 3.2 3.2 0.00 0.00 0.00 92 1011.4
20260506044619 24 185 4.8 4.8 0.00 0.00 0.00 92 1011.4
20260506044116 25 176 6.4 9.7 0.00 0.00 0.00 92 1011.2
20260506043613 25 156 3.2 4.8 0.00 0.00 0.00 92 1011.2
20260506043111 25 199 3.2 3.2 0.00 0.00 0.00 92 1011.2
20260506042610 25 223 1.6 1.6 0.00 0.00 0.00 92 1011.3
20260506042107 25 123 4.8 8.0 0.00 0.00 0.00 92 1011.3
20260506041606 25 144 8.0 12.9 0.00 0.00 0.00 92 1011.2
20260506041102 25 157 0.0 1.6 0.00 0.00 0.00 91 1011.2
20260506040600 25 131 4.8 8.0 0.00 0.00 0.00 91 1011.1
20260506040056 25 189 6.4 9.7 0.00 0.00 0.00 91 1011.0
20260506035553 25 156 6.4 9.7 0.00 0.00 0.00 91 1011.0
20260506035050 25 219 4.8 4.8 0.00 0.00 0.00 91 1011.2
20260506034547 25 207 1.6 3.2 0.00 0.00 0.00 91 1010.9
20260506034044 25 176 4.8 4.8 0.00 0.00 0.00 90 1010.6
20260506033541 25 187 3.2 4.8 0.00 0.00 0.00 90 1010.8
20260506033038 25 175 4.8 4.8 0.00 0.00 0.00 90 1010.9
20260506032536 25 212 1.6 1.6 0.00 0.00 0.00 89 1010.8
20260506032032 25 137 1.6 3.2 0.00 0.00 0.00 88 1010.7
20260506031530 25 210 1.6 3.2 0.00 0.00 0.00 88 1010.3
20260506031027 25 136 1.6 1.6 0.00 0.00 0.00 88 1010.6
20260506030525 25 218 0.0 0.0 0.00 0.00 0.00 87 1010.4
20260506030022 25 195 1.6 3.2 0.00 0.00 0.00 87 1010.4
20260506025519 25 196 1.6 1.6 0.00 0.00 0.00 87 1010.4
20260506025015 25 205 1.6 3.2 0.00 0.00 0.00 87 1010.2
20260506024512 25 203 3.2 3.2 0.00 0.00 0.00 87 1010.1
20260506024008 25 196 0.0 0.0 0.00 0.00 0.00 86 1010.0
20260506023504 25 212 3.2 3.2 0.00 0.00 0.00 86 1010.2
20260506023002 25 168 3.2 3.2 0.00 0.00 0.00 86 1010.0
20260506022459 25 224 0.0 0.0 0.00 0.00 0.00 86 1009.9
20260506021957 26 205 3.2 3.2 0.00 0.00 0.00 85 1009.6
20260506021454 26 208 1.6 1.6 0.00 0.00 0.00 85 1009.6
20260506020951 26 212 1.6 1.6 0.00 0.00 0.00 85 1009.7
20260506020449 26 170 8.0 11.3 0.00 0.00 0.00 84 1009.4
20260506015946 26 219 1.6 3.2 0.00 0.00 0.00 84 1009.4
20260506015443 26 203 3.2 4.8 0.00 0.00 0.00 83 1009.2
20260506014940 26 207 3.2 3.2 0.00 0.00 0.00 83 1009.1
20260506014437 26 158 4.8 4.8 0.00 0.00 0.00 83 1009.2
20260506013933 26 187 1.6 3.2 0.00 0.00 0.00 82 1009.0
20260506013432 26 218 1.6 3.2 0.00 0.00 0.00 82 1008.8
20260506012927 26 192 3.2 3.2 0.00 0.00 0.00 82 1009.2
20260506012424 26 195 1.6 3.2 0.00 0.00 0.00 82 1009.1
20260506011921 27 163 1.6 3.2 0.00 0.00 0.00 81 1009.2
20260506011418 27 189 4.8 8.0 0.00 0.00 0.00 80 1009.0
20260506010915 27 205 1.6 3.2 0.00 0.00 0.00 80 1009.1
20260506010414 27 228 3.2 3.2 0.00 0.00 0.00 79 1009.1
20260506005910 27 209 1.6 3.2 0.00 0.00 0.00 79 1009.1
20260506005408 27 211 3.2 3.2 0.00 0.00 0.00 79 1009.1
20260506004902 27 205 4.8 8.0 0.00 0.00 0.00 78 1009.2
20260506004401 27 176 3.2 3.2 0.00 0.00 0.00 78 1009.4
20260506003857 27 179 3.2 4.8 0.00 0.00 0.00 78 1009.2
20260506003353 27 181 3.2 3.2 0.00 0.00 0.00 78 1009.0
20260506002849 27 160 4.8 8.0 0.00 0.00 0.00 77 1009.2
20260506002346 28 212 0.0 1.6 0.00 0.00 0.00 77 1009.1
20260506001841 28 212 1.6 1.6 0.00 0.00 0.00 76 1009.1
20260506001339 28 220 3.2 4.8 0.00 0.00 0.00 76 1009.3
20260506000836 28 179 1.6 1.6 0.00 0.00 0.00 76 1009.3
20260506000333 28 214 3.2 4.8 0.00 0.00 0.00 75 1009.1
20260505235830 28 223 1.6 3.2 0.00 0.00 0.00 75 1009.2
20260505235327 28 175 3.2 3.2 0.00 0.00 0.00 74 1009.3
20260505234824 28 188 3.2 3.2 0.00 0.00 0.00 75 1009.0
20260505234322 28 148 3.2 9.7 0.00 0.00 0.00 75 1009.0
20260505233819 28 206 0.0 0.0 0.00 0.00 0.00 75 1008.8
20260505233317 28 227 4.8 4.8 0.00 0.00 0.00 74 1008.8
20260505232814 28 154 3.2 4.8 0.00 0.00 0.00 74 1008.7
20260505232311 28 192 6.4 8.0 0.00 0.00 0.00 75 1008.9
20260505231808 28 197 6.4 9.7 0.00 0.00 0.00 73 1008.8
20260505231306 28 201 8.0 12.9 0.00 0.00 0.00 73 1008.8
20260505230804 28 174 3.2 3.2 0.00 0.00 0.00 72 1009.0
20260505230301 28 133 9.7 11.3 0.00 0.00 0.00 72 1008.9
20260505225757 28 165 4.8 8.0 0.00 0.00 0.00 73 1008.8
20260505225254 28 214 3.2 8.0 0.00 0.00 0.00 72 1008.7
20260505224749 28 215 8.0 9.7 0.00 0.00 0.00 72 1008.8
20260505224247 28 179 8.0 11.3 0.00 0.00 0.00 72 1008.7
20260505223745 28 196 4.8 4.8 0.00 0.00 0.00 72 1008.7
20260505223241 29 208 6.4 8.0 0.00 0.00 0.00 71 1008.6
20260505222737 29 208 4.8 8.0 0.00 0.00 0.00 72 1008.6
20260505222233 29 161 3.2 4.8 0.00 0.00 0.00 72 1008.6
20260505221731 29 185 8.0 11.3 0.00 0.00 0.00 71 1008.7
20260505221227 28 202 3.2 3.2 0.00 0.00 0.00 72 1008.7
20260505220724 29 155 6.4 8.0 0.00 0.00 0.00 72 1008.7
20260505220222 30 145 8.0 11.3 0.00 0.00 0.00 71 1008.9
20260505215720 29 206 1.6 3.2 0.00 0.00 0.00 71 1008.7
20260505215217 30 198 12.9 17.7 0.00 0.00 0.00 70 1008.8
20260505214715 30 173 4.8 8.0 0.00 0.00 0.00 70 1008.7
20260505214212 30 164 9.7 11.3 0.00 0.00 0.00 70 1009.0
20260505213709 30 145 4.8 8.0 0.00 0.00 0.00 70 1009.0
20260505213206 30 183 6.4 9.7 0.00 0.00 0.00 70 1009.0